"Pseudo-MPEC" for P12bBDA

Created 2025 Jul 7 22:35:08 UT using Find_Orb

Click here for an explanation of pseudo-MPECs

 
 Astrometry: 
     P12bBDA* C2025 07 06.52171821 38 32.480+06 13 55.76   ~76EZ 21.54wXNEOCPF51
     P12bBDA  C2025 07 06.54486521 38 33.464+06 14 29.79   ~76EZ 21.52wXNEOCPF51
     P12bBDA  C2025 07 06.55647521 38 33.984+06 14 47.14   ~76EZ 21.70wXNEOCPF51
     P12bBDA  C2025 07 06.60727921 38 36.202+06 16 02.06   ~76Mo 21.52GVNEOCPF51
     P12bBDA KB2025 07 07.29340 21 39 10.894+06 32 47.08   ~778o 21.7 GXNEOCP734
     P12bBDA KB2025 07 07.33323 21 39 12.521+06 33 45.68   ~778o 21.2 GXNEOCP734

Station data:
(734) Farpoint Observatory, Eskridge  (N38.890239 W96.002420)  US/Kansas.
   Observer G. Hug. 0.69-m reflector + CCD.
(F51) Pan-STARRS 1, Haleakala  (N20.707234 W156.255910)  US/Hawaii.
   Observers J. Bulger, T. Lowe, A. Schultz, M. Willman. Measurers K.
   Chambers, S. Chastel, T. de Boer, L. Denneau, J. Fairlamb, H. Flewelling,
   M. Huber, C.-C. Lin, E. Magnier, Y. Ramanjooloo, R. Wainscoat, R. Weryk.
   1.8-m Ritchey-Chrétien + CCD.

Orbital elements:  P12bBDA
   Perihelion 2025 Sep 16.18125 +/- 37.3 TT =  4:21:00 (JD 2460934.68125)
Epoch 2025 Jul  7.0 TT = JDT 2460863.5   Earth MOID: 0.3296   Ma: 0.0141
M 331.57252154 +/- 13               (J2000 ecliptic)             AutoNEOCP
n   0.39936750 +/- 0.0993           Peri.  111.32379 +/- 34
a   1.82622477 +/- 0.303            Node   238.34572 +/- 6
e   0.2873901 +/- 0.103             Incl.    7.95164 +/- 0.7
P   2.468/901.408d         H 20.92  G  0.15   U 11.2  SR
q 1.30138571 +/- 0.0707    Q 2.35106382 +/- 1.11
From 6 observations 2025 July 6-7 (19.5 hr); mean residual 0".37
Residuals in arcseconds: 
250706 F51  .00   .13-    250706 F51  .02+  .06+    250707 734  .76+  .02+    
250706 F51  .26-  .20-    250706 F51  .26+  .30+    250707 734  .84-  .19-    

Ephemerides (geocentric):
Date (UTC) HH   RA             Dec           delta  r     elong  mag " sig PA
---- --------  ------------   ------------  ------ ------ -----  --- --------
2025 07 07 23  21 39 42.468   +06 49 15.53  .51088 1.4140 132.7 21.6 6.68 145
2025 07 08 00  21 39 44.455   +06 50 16.89  .51064 1.4139 132.8 21.6 7.35 146
2025 07 08 01  21 39 46.439   +06 51 18.24  .51040 1.4137 132.8 21.6 8.04 146
2025 07 08 02  21 39 48.420   +06 52 19.60  .51015 1.4136 132.8 21.6 8.77 146
2025 07 08 03  21 39 50.399   +06 53 20.96  .50991 1.4135 132.8 21.6 9.51 147
2025 07 08 04  21 39 52.375   +06 54 22.31  .50967 1.4134 132.8 21.6 10.3 147
2025 07 08 05  21 39 54.348   +06 55 23.67  .50943 1.4133 132.8 21.6 11.1 147
2025 07 08 06  21 39 56.318   +06 56 25.02  .50918 1.4131 132.9 21.6 11.9 147
2025 07 08 07  21 39 58.286   +06 57 26.38  .50894 1.4130 132.9 21.6 12.8 147
2025 07 08 08  21 40 00.251   +06 58 27.73  .50870 1.4129 132.9 21.6 13.7 148
2025 07 08 09  21 40 02.214   +06 59 29.08  .50846 1.4128 132.9 21.6 14.6 148
2025 07 08 10  21 40 04.173   +07 00 30.43  .50822 1.4126 132.9 21.5 15.5 148
2025 07 08 11  21 40 06.130   +07 01 31.78  .50798 1.4125 132.9 21.5 16.5 148
2025 07 08 12  21 40 08.084   +07 02 33.13  .50773 1.4124 133.0 21.5 17.5 148
2025 07 08 13  21 40 10.036   +07 03 34.48  .50749 1.4123 133.0 21.5 18.5 148
2025 07 08 14  21 40 11.985   +07 04 35.82  .50725 1.4122 133.0 21.5 19.5 148
2025 07 08 15  21 40 13.931   +07 05 37.17  .50701 1.4120 133.0 21.5 20.6 149
2025 07 08 16  21 40 15.874   +07 06 38.51  .50677 1.4119 133.0 21.5 21.7 149
2025 07 08 17  21 40 17.814   +07 07 39.86  .50653 1.4118 133.1 21.5 22.8 149
2025 07 08 18  21 40 19.752   +07 08 41.20  .50629 1.4117 133.1 21.5 24.0 149
2025 07 08 19  21 40 21.687   +07 09 42.54  .50605 1.4116 133.1 21.5 25.2 149
2025 07 08 20  21 40 23.620   +07 10 43.88  .50581 1.4114 133.1 21.5 26.4 149
2025 07 08 21  21 40 25.549   +07 11 45.21  .50557 1.4113 133.1 21.5 27.6 149
2025 07 08 22  21 40 27.476   +07 12 46.55  .50533 1.4112 133.1 21.5 28.9 149
2025 07 08 23  21 40 29.400   +07 13 47.88  .50509 1.4111 133.2 21.5 30.1 149
2025 07 09 00  21 40 31.322   +07 14 49.21  .50485 1.4110 133.2 21.5 31.5 149
2025 07 09 01  21 40 33.241   +07 15 50.54  .50462 1.4108 133.2 21.5 32.8 149
2025 07 09 02  21 40 35.157   +07 16 51.87  .50438 1.4107 133.2 21.5 34.2 149
2025 07 09 03  21 40 37.070   +07 17 53.20  .50414 1.4106 133.2 21.5 35.6 150
2025 07 09 04  21 40 38.980   +07 18 54.52  .50390 1.4105 133.3 21.5 37.0 150
2025 07 09 05  21 40 40.888   +07 19 55.85  .50366 1.4104 133.3 21.5 38.4 150
2025 07 09 06  21 40 42.793   +07 20 57.17  .50342 1.4102 133.3 21.5 39.9 150
2025 07 09 07  21 40 44.695   +07 21 58.49  .50319 1.4101 133.3 21.5 41.4 150
2025 07 09 08  21 40 46.595   +07 22 59.80  .50295 1.4100 133.3 21.5 42.9 150
2025 07 09 09  21 40 48.492   +07 24 01.12  .50271 1.4099 133.3 21.5 44.5 150
2025 07 09 10  21 40 50.386   +07 25 02.43  .50247 1.4097 133.4 21.5 46.1 150
2025 07 09 11  21 40 52.277   +07 26 03.74  .50224 1.4096 133.4 21.5 47.7 150
2025 07 09 12  21 40 54.165   +07 27 05.05  .50200 1.4095 133.4 21.5 49.3 150
2025 07 09 13  21 40 56.051   +07 28 06.35  .50176 1.4094 133.4 21.5 51.0 150
2025 07 09 14  21 40 57.934   +07 29 07.65  .50153 1.4093 133.4 21.5 52.7 150
2025 07 09 15  21 40 59.814   +07 30 08.95  .50129 1.4091 133.5 21.5 54.4 150
2025 07 09 16  21 41 01.692   +07 31 10.25  .50105 1.4090 133.5 21.5 56.1 150
2025 07 09 17  21 41 03.567   +07 32 11.54  .50082 1.4089 133.5 21.5 57.9 150
2025 07 09 18  21 41 05.439   +07 33 12.84  .50058 1.4088 133.5 21.5 59.7 150
2025 07 09 19  21 41 07.308   +07 34 14.13  .50035 1.4087 133.5 21.5 61.5 150
2025 07 09 20  21 41 09.174   +07 35 15.41  .50011 1.4086 133.5 21.5 63.4 150
2025 07 09 21  21 41 11.038   +07 36 16.70  .49988 1.4084 133.6 21.5 65.3 150
2025 07 09 22  21 41 12.899   +07 37 17.98  .49964 1.4083 133.6 21.5 67.2 150